Pedro Bay, AK

3:57 AM AKDT on August 24, 2016 (GMT -0800)
Iliamna | | Change Station

Elev 161 ft 59.75 °N, 154.91 °W | Updated 4 minutes ago

Light Rain
Light Rain
58 °F
Feels Like 58 °F
N
12
Wind Variable Wind from East

Today
High -- | Low -- °F
--% Chance of Precip.
Yesterday
High -- | Low -- °F
Precip. -- in
Pressure 30.11 in
Visibility 10.0 miles
Clouds Mostly Cloudy 3500 ft
Mostly Cloudy 7000 ft
Overcast 9000 ft
Dew Point 54 °F
Humidity 87%
Rainfall 0.00 in
Snow Depth Not available.
6:58 AM 9:43 PM
Waning Gibbous, 58% visible
METAR PAIL 241153Z AUTO 08010KT 10SM -RA BKN035 BKN070 OVC090 14/12 A3010 RMK AO2 RAB32 SLP194 P0000 60000 70005 T01440122 10150 20144 58001 TSNO
Pressure 30.11 in
Visibility 10.0 miles
Clouds Mostly Cloudy 3500 ft
Mostly Cloudy 7000 ft
Overcast 9000 ft
Dew Point 54 °F
Humidity 87%
Rainfall 0.00 in
Snow Depth Not available.
6:58 AM 9:43 PM
Waning Gibbous, 58% visible
METAR PAIL 241153Z AUTO 08010KT 10SM -RA BKN035 BKN070 OVC090 14/12 A3010 RMK AO2 RAB32 SLP194 P0000 60000 70005 T01440122 10150 20144 58001 TSNO

10-Day Weather Forecast

Almanac

Astronomy

Aug. 24, 2016 Rise Set
Actual Time
Civil Twilight
Nautical Twilight
Astronomical Twilight
Moon
Length of Visible Light
Length of Day
Tomorrow will be .
, % of the Moon is Illuminated

Today's Extremes

State Highs State Lows

Community

WunderPhotos

Upload Photos

1,934,571 photos uploaded!

WunderBlog® & News

Nearby

Air Quality

  Air Quality AQ Index Pollutant
Not available.

Snow Depth

Station Depth Elevation

Earthquake Activity

City Distance Mag. Time & Date
Minimum magnitude displayed is 2.5.

Coastal Water Temperatures

Place Temperature

Stations

Nearby Weather Stations

Station Location Temp. Windchill Dew Point Humidity Wind Precip. Elev Updated Type
                   

Watches & Warnings

There are currently no watches in effect.